Location: La Tine
(46.4708°N, 7.0525°E)
Time: 07:25:41
(UTC+00:00)

Meteor 1-24 Rocket - Pass Details

Date: 19 January 2021
Orbit: 790 x 927 km, 81.3° (Epoch: 24 February)

Event Time Altitude Azimuth Distance (km) Brightness Sun altitude
Rises 17:49:31 0° 201° (SSW) 3,324 7.3 -15.6°
Reaches altitude 10° 17:51:58 10° 205° (SSW) 2,382 6.6 -16.0°
Maximum altitude 17:57:14 57° 284° (WNW) 935 4.2 -16.9°
Drops below altitude 10° 18:02:28 10° 4° (N) 2,367 5.9 -17.8°
Sets 18:04:53 0° 8° (N) 3,301 6.6 -18.2°
